Location: Chuathbaluk
(61.5726°N, 159.2454°W)
Time: 13:06:57
(UTC+00:00)

XW-2F - Pass Details

Date: 22 January 2021
Orbit: 500 x 520 km, 97.5° (Epoch: 01 March)

Event Time Altitude Azimuth Distance (km) Brightness Sun altitude
Rises 15:31:42 0° 25° (NNE) 2,663 ? -26.2°
Reaches altitude 10° 15:34:43 10° 52° (NE) 1,770 ? -25.9°
Maximum altitude 15:36:46 14° 84° (E) 1,534 ? -25.6°
Drops below altitude 10° 15:38:48 10° 117° (ESE) 1,764 ? -25.4°
Sets 15:41:47 0° 143° (SE) 2,646 ? -25.0°
